Regional Weather Roundup
Issued by NWS

Home | Current Version | Previous Version | Graphics & Text | Print | Product List | Glossary On
Versions: 1 2 3 4 5 6 7 8 9 10 11 12 13 14 15 16 17 18 19 20 21 22 23 24 25 26 27 28 29 30 31 32 33 34 35 36 37 38 39 40 41 42 43 44 45 46 47 48 49 50
000
ASUS44 KMEG 272100
RWRTN
TENNESSEE HOURLY STATE WEATHER ROUNDUP
NATIONAL WEATHER SERVICE MEMPHIS TN
400 PM CDT WED AUG 27 2014

TNZ002-004-019-021-049-052-054-088>092-272200-
WEST TENNESSEE

CITY           SKY/WX    TMP DP  RH WIND       PRES   REMARKS
MEMPHIS INTL   PTSUNNY   92  63  38 E8        30.04F HX  93
NWS MEMPHIS      N/A     92 N/A N/A MISG        N/A
JACKSON        MOSUNNY   89  69  51 CALM      30.05F HX  93
DYERSBURG      MOSUNNY   90  66  45 SE7       30.05F HX  92
UNION CITY     SUNNY     90  73  58 S3        30.03F HX  98
PARIS          SUNNY     90  70  51 CALM      30.05S HX  95
LEXINGTON      MOSUNNY   91  68  46 W5        30.04F HX  95
SAVANNAH       SUNNY     91  68  46 CALM      30.05F HX  95
$$

TNZ008-025-027-028-033-062-065-066-272200-
NORTH MIDDLE TENNESSEE

CITY           SKY/WX    TMP DP  RH WIND       PRES   REMARKS
NASHVILLE      PTSUNNY   91  69  48 E9        30.05F HX  96
CLARKSVILLE    MOSUNNY   86  73  65 S6        30.04F HX  93
COOKEVILLE     SUNNY     90  66  45 N3        30.07F HX  92
CROSSVILLE     SUNNY     86  61  42 N5        30.12F
$$

TNZ061-075-076-078-094-096-097-272200-
SOUTH MIDDLE TENNESSEE

CITY           SKY/WX    TMP DP  RH WIND       PRES   REMARKS
FAYETTEVILLE   SUNNY     86  64  48 NE5       30.06F
TULLAHOMA      SUNNY     86  64  48 N5        30.08S
WINCHESTER     SUNNY     88  66  48 N3        30.06F HX  90
COLUMBIA       MOSUNNY   91  73  55 CALM      30.04F HX 100
SHELBYVILLE    SUNNY     91  72  52 N7        30.06F HX  98
$$

TNZ017-018-042-046-047-272200-
NORTHEAST TENNESSEE

CITY           SKY/WX    TMP DP  RH WIND       PRES   REMARKS
TRI CITIES     MOSUNNY   86  56  35 N6        30.08F
ELIZABETHTON   CLEAR     82  52  34 VRB5      30.08F
$$

TNZ012-013-036-069-073-074-272200-
CENTRAL EAST TENNESSEE

CITY           SKY/WX    TMP DP  RH WIND       PRES   REMARKS
KNOXVILLE      NOT AVBL
OAK RIDGE      SUNNY     88  58  36 E6        30.08F
GATLINBURG     CLEAR     88  57  35 E6        30.06F
$$

TNZ083-085-099-272200-
SOUTHEAST TENNESSEE

CITY           SKY/WX    TMP DP  RH WIND       PRES   REMARKS
CHATTANOOGA    MOSUNNY   91  52  26 N9        30.05F
$$

SKY/WX REPORTED AS FAIR MEANS FEW OR NO CLOUDS BELOW
12 THOUSAND FEET.



USA.gov is the U.S. government's official web portal to all federal, state and local government web resources and services.